Weather History for Abilene Dyess, TX

Change the Weather History Date:

Friday, February 8, 2013

  Actual Average Record
Temperature  
Mean Temperature 46 °F -  
Max Temperature 62 °F 57 °F 82 °F (1999)
Min Temperature 31 °F 37 °F 15 °F (2011)
Degree Days  
Heating Degree Days 18    
Moisture  
Dew Point 23 °F    
Average Humidity 44    
Maximum Humidity 80    
Minimum Humidity 16    
Precipitation  
Precipitation 0.00 in - - ()
Sea Level Pressure  
Sea Level Pressure 30.17 in    
Wind  
Wind Speed 7 mph (ENE)    
Max Wind Speed 14 mph    
Max Gust Speed -    
Visibility 10 miles    
Events      
Averages and records for this station are not official NWS values.
T = Trace of Precipitation, MM = Missing Value Source: NWS Daily Summary

Daily Weather History Graph

Daily Weather History Graph

Search for Another Location

Airport:

Trip Planner

Search our weather history database for the weather conditions in past years. The results will help you decide how hot, cold, wet, or windy it might be!

Date:

Astronomy

Feb. 08, 2013 Rise Set
Actual Time 7:28 AM CST 6:19 PM CST
Civil Twilight 7:02 AM CST 6:44 PM CST
Nautical Twilight 6:33 AM CST 7:13 PM CST
Astronomical Twilight 6:05 AM CST 7:42 PM CST
Moon 5:55 AM CST (2/8) 4:56 PM CST (2/8)
Length of Visible Light 11h 42m
Length of Day
10h 51m
Waning Crescent, 3% of the Moon is Illuminated
Feb 8
Waning Crescent
Feb 10
New
Feb 17
First Quarter
Feb 25
Full
Mar 4
Last Quarter

Hourly Weather History & Observations

Time (CST) Temp. Windchill Dew Point Humidity Pressure Visibility Wind Dir Wind Speed Gust Speed Precip Events Conditions
12:55 AM 41.5 °F 37.1 °F 32.5 °F 70% 30.19 in 10.0 mi NNW 6.9 mph - N/A   Clear
1:55 AM 39.0 °F 34.0 °F 31.6 °F 75% 30.19 in 10.0 mi NNW 6.9 mph - N/A   Clear
2:55 AM 37.6 °F 35.1 °F 30.0 °F 74% 30.20 in 10.0 mi NW 3.5 mph - N/A   Clear
3:55 AM 31.6 °F 28.3 °F 26.2 °F 80% 30.22 in 10.0 mi WNW 3.5 mph - N/A   Clear
4:55 AM 35.2 °F 31.2 °F 27.5 °F 73% 30.22 in 10.0 mi North 4.6 mph - N/A   Clear
5:55 AM 33.1 °F 27.7 °F 27.0 °F 78% 30.23 in 10.0 mi North 5.8 mph - N/A   Clear
6:55 AM 34.7 °F 31.8 °F 27.7 °F 76% 30.24 in 10.0 mi NW 3.5 mph - N/A   Clear
7:55 AM 33.1 °F 27.7 °F 27.1 °F 79% 30.26 in 10.0 mi NW 5.8 mph - N/A   Clear
8:55 AM 41.7 °F - 29.8 °F 63% 30.27 in 10.0 mi Calm Calm - N/A   Clear
9:55 AM 47.1 °F - 27.9 °F 47% 30.27 in 10.0 mi ENE 6.9 mph - N/A   Clear
10:55 AM 52.5 °F - 25.9 °F 36% 30.26 in 10.0 mi East 6.9 mph - N/A   Clear
11:55 AM 57.0 °F - 20.7 °F 24% 30.25 in 10.0 mi ENE 10.4 mph - N/A   Clear
12:55 PM 58.8 °F - 18.0 °F 20% 30.20 in 10.0 mi East 10.4 mph - N/A   Clear
1:55 PM 60.3 °F - 18.3 °F 20% 30.16 in 10.0 mi East 8.1 mph - N/A   Clear
2:55 PM 61.9 °F - 15.4 °F 16% 30.14 in 10.0 mi Variable 6.9 mph - N/A   Clear
3:55 PM 62.1 °F - 18.3 °F 18% 30.12 in 10.0 mi SE 10.4 mph - N/A   Clear
4:55 PM 61.3 °F - 19.0 °F 20% 30.09 in 10.0 mi ESE 8.1 mph - N/A   Clear
5:55 PM 59.9 °F - 17.8 °F 19% 30.08 in 10.0 mi ESE 10.4 mph - N/A   Clear
6:55 PM 56.3 °F - 17.2 °F 22% 30.08 in 10.0 mi ESE 9.2 mph - N/A   Clear
7:55 PM 53.1 °F - 19.2 °F 27% 30.10 in 10.0 mi ESE 6.9 mph - N/A   Clear
8:55 PM 49.6 °F - 18.9 °F 30% 30.09 in 10.0 mi ESE 5.8 mph - N/A   Clear
9:55 PM 49.8 °F - 19.4 °F 30% 30.08 in 10.0 mi ESE 5.8 mph - N/A   Overcast
10:55 PM 51.1 °F - 20.1 °F 30% 30.06 in 10.0 mi SE 10.4 mph - N/A   Mostly Cloudy
11:55 PM 51.4 °F - 20.5 °F 30% 30.02 in 10.0 mi ESE 13.8 mph - N/A   Scattered Clouds